Wetbulb
52.65 50.59 48.54 51.09 51.77 52.48 54.75 53.59 54.37 57.53 58.55 56.38 56.39 59.45 61.74 63.53 63.86 63.17 63.73 65.00 66.14 66.82 69.77 70.66 71.52 71.87 72.12 72.65 72.53 72.58 71.65 73.48 74.00 73.32 72.86 72.40 71.55 72.61 73.32 74.07 74.32 72.94 73.14 73.44
50.22 49.60 54.67 56.20 54.92 53.81 52.89 55.19 54.18 57.16 59.22 57.08 55.94 57.81 60.82 61.37 62.67 63.92 64.43 64.52 65.78 65.97 69.07 70.21 70.87 70.94 71.45 71.97 72.80 73.47 73.64 74.24 74.57 74.33 74.20 73.52 73.15 73.80 73.23 74.37 73.15 72.68 71.76 72.62
48.76 53.19 57.38 55.17 53.02 52.50 51.48 49.97 54.10 54.98 58.55 58.85 57.25 53.83 56.14 61.12 61.29 63.91 65.63 65.79 66.05 66.14 66.92 69.15 70.31 70.51 71.67 72.50 73.34 74.06 74.53 74.85 74.60 73.53 74.38 73.29 72.39 71.62 69.85 71.13 71.14 68.79 68.16 68.48
51.02 55.39 54.64 52.89 51.84 52.74 46.51 53.48 53.62 55.66 55.00 48.99 56.64 46.54 52.22 56.14 57.21 61.64 63.89 64.63 64.77 66.07 66.75 67.46 67.25 67.82 70.94 73.11 74.00 74.81 74.64 73.96 74.86 73.99 72.85 69.59 66.28 61.57 67.48 67.80 67.86 67.33 68.39 68.28
50.50 52.53 52.40 51.50 52.42 53.81 50.02 53.96 51.98 51.31 50.98 48.18 51.54 46.37 52.49 55.36 54.07 58.23 61.39 64.20 65.12 66.05 66.78 67.29 67.95 69.15 71.01 73.38 73.33 73.32 74.34 74.55 71.71 66.95 67.69 64.02 61.61 63.93 66.08 66.47 65.45 63.48 65.50 67.84
51.93 55.55 53.67 53.25 55.18 54.72 55.14 51.44 49.94 48.74 45.36 40.45 46.48 47.38 49.19 52.99 55.93 59.14 61.38 63.41 64.63 65.80 66.91 67.84 68.85 69.97 71.22 72.47 73.71 74.74 73.45 70.18 69.06 66.54 65.16 63.36 62.71 63.16 63.20 64.59 63.58 64.38 64.67 65.35
50.58 51.46 53.33 54.50 50.12 52.62 51.01 47.48 41.82 40.00 39.97 40.09 46.58 45.85 50.71 57.82 59.87 59.35 59.85 60.23 62.72 65.42 66.25 66.72 67.38 68.62 70.64 70.93 72.85 74.26 71.19 69.10 68.34 66.97 67.02 65.51 64.57 64.26 63.50 63.88 65.16 63.24 62.86 65.38
45.06 44.15 50.70 53.82 50.07 48.43 48.43 46.74 43.13 38.71 39.46 43.60 49.61 44.46 50.05 60.61 61.81 61.36 62.31 61.34 62.11 64.50 65.47 66.12 66.82 67.83 69.81 70.79 72.45 72.54 70.65 69.70 68.41 67.76 65.96 65.48 64.93 64.33 65.83 67.17 64.93 62.87 62.82 64.76
45.12 46.18 53.50 54.19 54.11 52.88 49.49 46.35 50.26 44.58 45.81 42.37 45.69 50.09 55.89 60.04 59.75 60.97 62.41 61.58 60.21 61.99 65.03 65.24 66.30 67.67 69.67 69.86 72.01 71.59 71.10 70.33 68.99 68.47 67.08 66.22 66.25 65.61 66.20 65.55 64.83 63.93 66.10 65.15
48.89 44.43 51.33 53.43 53.87 53.67 51.23 52.69 45.94 44.03 38.96 38.40 44.41 48.22 47.65 52.05 54.76 59.10 59.97 60.04 61.00 61.91 64.98 65.83 66.12 67.25 69.70 70.37 71.64 71.83 71.65 70.65 70.23 69.21 68.64 68.37 67.79 66.83 66.01 65.40 64.48 65.07 64.37 65.84
50.83 46.80 49.45 51.74 48.84 48.64 49.06 47.27 48.16 46.59 44.49 39.45 39.23 44.12 54.23 55.12 55.50 54.76 55.21 57.16 59.51 63.11 63.41 66.08 66.79 68.06 69.68 70.62 71.66 71.66 71.73 70.95 69.84 69.63 68.51 67.71 67.03 66.47 66.46 65.47 65.04 65.53 66.26 66.64
51.65 47.58 46.79 48.95 52.65 54.19 51.38 48.74 49.58 43.37 43.12 44.79 44.37 46.68 56.84 56.89 56.62 57.13 58.17 59.11 58.86 61.24 64.07 65.52 67.67 68.96 69.67 70.31 70.99 71.15 71.62 70.75 69.11 69.11 68.58 64.96 64.23 65.57 65.68 65.05 65.02 65.27 64.42 65.07
51.61 48.67 44.25 46.48 49.74 52.18 50.23 50.48 49.45 49.50 46.51 43.22 43.11 45.51 56.52 55.97 55.32 57.54 57.02 59.11 60.23 60.45 61.79 64.53 67.62 68.94 69.82 70.13 69.62 70.18 70.68 69.86 68.79 68.06 67.42 65.68 65.55 65.48 64.34 65.12 65.17 65.03 64.66 64.26
57.34 47.59 46.65 43.12 48.12 50.58 48.49 50.96 50.80 47.13 42.81 43.62 46.15 49.33 52.06 55.36 57.77 57.86 58.62 58.95 61.82 62.16 65.99 65.16 67.61 69.73 70.44 70.15 68.86 68.37 68.51 68.86 67.92 67.96 66.90 65.80 66.40 66.11 65.72 65.52 65.43 65.62 65.18 64.57
53.07 46.95 48.03 48.81 50.86 51.02 52.28 51.50 50.75 47.59 47.24 45.37 47.50 51.74 52.51 54.76 56.01 57.13 58.45 58.54 59.36 62.90 64.47 66.19 65.55 69.66 70.39 69.89 68.13 67.23 67.41 67.75 67.58 66.46 65.71 66.30 66.74 66.49 66.35 65.98 66.26 65.58 65.19 65.74
51.43 48.30 48.34 46.89 51.41 50.76 49.48 52.13 52.58 52.58 51.23 49.07 49.10 49.34 56.16 57.57 58.65 58.30 58.10 58.18 58.03 58.97 60.72 66.99 67.41 67.13 69.68 69.77 67.32 66.78 65.88 66.33 66.60 65.65 65.94 67.94 67.91 67.02 66.36 66.06 65.94 65.24 64.80 65.27
51.12 49.96 46.34 42.31 48.99 49.61 46.06 49.93 50.85 51.56 53.13 51.71 48.01 52.09 56.33 56.43 57.87 56.78 56.67 57.72 58.09 59.40 60.09 59.21 65.84 67.19 68.96 69.43 68.04 66.22 65.67 66.42 65.95 66.09 66.26 66.95 67.09 66.56 66.39 66.57 66.54 66.45 65.74 64.28
52.26 50.44 47.36 43.72 47.88 39.50 48.98 54.61 54.94 54.43 55.55 55.81 55.41 57.15 57.99 56.08 56.37 56.49 57.05 57.39 58.41 58.95 59.93 59.57 61.44 67.64 69.38 69.09 67.45 66.60 66.76 65.50 65.98 65.26 66.23 66.55 66.40 66.49 66.62 66.45 65.98 65.93 64.53 63.74
54.99 51.11 47.62 43.42 42.67 46.44 51.69 53.69 54.10 51.62 51.92 56.78 55.54 57.19 57.56 58.25 59.34 58.22 60.91 59.60 59.59 61.21 62.08 62.54 62.97 68.99 69.42 68.02 67.13 66.68 65.96 65.47 65.71 65.05 65.60 66.67 66.73 66.00 66.01 66.34 65.94 65.61 64.90 64.13
52.90 53.50 49.02 45.15 41.17 40.81 48.99 56.54 58.35 56.27 47.92 57.33 58.02 56.73 58.71 56.09 54.26 55.70 60.12 61.88 61.80 62.66 63.51 63.75 65.51 68.76 68.83 68.30 67.60 66.93 65.93 66.49 66.13 66.05 66.87 67.45 67.23 66.55 66.35 66.76 66.02 65.29 64.74 63.93
48.88 48.86 44.98 44.29 43.24 46.94 55.49 58.51 58.42 47.70 49.11 57.84 57.62 56.71 57.80 54.32 55.53 58.38 60.50 59.77 61.53 61.57 63.96 65.11 65.87 68.25 68.86 69.00 68.96 66.56 65.63 65.46 66.81 67.31 67.12 67.61 67.60 67.66 67.60 67.23 66.08 64.05 63.44 59.61
49.11 47.67 43.81 46.45 43.76 42.06 57.70 58.07 53.33 54.92 57.30 58.86 59.02 58.46 57.86 57.74 57.75 58.36 58.38 58.36 61.47 61.12 64.02 65.77 67.32 68.93 69.54 69.68 68.36 65.98 65.42 67.11 67.35 66.95 67.17 67.62 67.76 68.74 68.68 64.55 64.36 63.77 63.77 60.84
48.27 51.78 51.10 50.84 49.69 55.56 56.99 54.42 57.98 58.38 56.85 57.45 57.56 58.30 58.36 58.65 58.43 59.07 58.59 56.94 59.65 62.55 63.93 66.50 68.69 68.43 68.60 69.34 66.44 64.57 63.17 60.74 59.82 66.51 67.32 68.13 68.42 66.02 64.39 63.02 63.44 62.57 61.09 61.08
54.03 54.94 51.62 51.11 53.08 53.82 56.92 56.26 56.47 57.42 58.15 59.06 59.58 59.47 58.90 57.45 59.31 59.12 60.13 60.30 60.57 63.14 63.65 67.21 66.22 62.26 60.39 63.26 61.55 60.66 60.96 61.27 61.20 60.07 62.26 65.84 64.48 64.03 63.75 62.00 60.70 59.38 56.71 56.93
52.02 53.90 50.74 52.83 55.88 56.26 56.88 57.52 57.41 58.26 59.11 59.78 60.29 59.76 58.96 59.34 59.40 59.96 61.36 64.02 63.01 63.79 64.34 64.44 62.07 60.92 61.67 63.76 62.99 61.36 61.17 61.01 59.06 58.53 66.18 64.89 65.38 61.88 55.48 51.86 53.17 56.91 48.91 50.61
53.53 51.23 50.79 49.16 54.76 54.76 54.54 57.04 57.83 56.33 56.60 56.97 56.54 57.97 59.56 59.47 59.70 63.91 64.37 64.28 63.58 61.95 62.13 61.44 61.44 62.76 62.56 61.24 60.43 62.22 61.75 63.07 64.12 64.88 63.51 61.53 61.38 58.34 56.39 51.99 49.22 44.79 45.53 42.97
MSLP
1000.60 1000.91 1000.70 1000.39 1000.04 999.93 1000.02 1000.41 1001.40 1002.33 1002.43 1002.95 1004.10 1005.47 1006.09 1006.75 1007.31 1007.88 1008.33 1008.46 1009.08 1009.69 1010.39 1010.91 1011.55 1012.10 1012.58 1013.13 1013.69 1014.09 1014.46 1014.93 1015.38 1016.02 1016.54 1016.66 1016.74 1016.56 1016.50 1016.36 1016.31 1016.53 1016.74 1016.88
1000.97 1000.68 1000.23 999.87 999.66 999.21 999.36 1000.21 1000.54 1000.66 1001.67 1002.42 1003.99 1005.30 1005.60 1006.06 1006.63 1006.76 1007.61 1008.11 1008.52 1009.16 1010.04 1010.66 1011.27 1011.81 1012.31 1012.86 1013.47 1013.98 1014.28 1014.74 1015.31 1015.74 1015.98 1016.19 1016.31 1016.21 1016.06 1015.96 1016.16 1016.45 1016.68 1016.84
1000.54 1000.27 999.75 999.54 998.99 998.82 998.81 999.43 999.90 1000.37 1001.34 1002.44 1004.15 1005.86 1006.16 1005.22 1005.39 1006.44 1006.54 1007.48 1008.22 1008.58 1009.50 1010.40 1010.92 1011.45 1011.99 1012.73 1013.23 1013.77 1014.08 1014.51 1014.97 1015.28 1015.71 1015.98 1016.01 1016.00 1016.12 1016.05 1016.45 1016.56 1016.55 1016.68
1000.09 999.60 999.15 998.89 998.64 998.23 998.32 998.38 998.69 1000.32 1001.11 1003.24 1003.72 1006.04 1006.60 1006.16 1005.93 1006.05 1006.10 1006.69 1007.30 1008.29 1008.90 1009.65 1010.55 1011.04 1011.60 1012.33 1012.84 1013.32 1013.84 1014.29 1014.66 1014.98 1015.41 1015.88 1016.12 1016.39 1016.21 1016.30 1016.46 1016.59 1016.44 1016.61
999.15 998.73 998.33 998.04 997.65 997.52 997.94 998.14 998.77 999.73 1001.37 1002.07 1003.40 1004.40 1005.02 1006.29 1006.26 1005.67 1005.74 1006.03 1006.49 1007.23 1008.10 1008.90 1009.68 1010.61 1011.21 1011.90 1012.47 1012.91 1013.57 1014.04 1014.47 1014.87 1015.15 1015.83 1015.95 1016.08 1016.20 1016.45 1016.59 1016.29 1016.41 1016.32
998.44 997.78 997.51 997.26 997.09 997.11 997.61 998.33 999.38 1000.12 1001.46 1002.55 1002.84 1003.72 1005.23 1005.08 1004.27 1003.73 1003.43 1005.00 1005.49 1006.42 1007.34 1008.02 1008.80 1009.78 1010.69 1011.32 1012.06 1012.71 1013.43 1013.98 1014.26 1014.52 1014.94 1015.22 1015.72 1016.04 1016.31 1016.44 1016.47 1016.52 1016.49 1016.58
998.00 997.34 996.76 996.45 996.74 997.10 997.67 999.04 1000.49 1001.73 1002.38 1002.75 1002.34 1002.74 1002.63 1002.50 1002.50 1002.90 1003.54 1003.73 1004.21 1004.89 1006.11 1007.10 1007.88 1008.82 1009.88 1010.71 1011.49 1012.36 1013.12 1013.90 1014.14 1014.41 1014.76 1015.07 1015.45 1015.66 1016.01 1016.15 1016.44 1016.63 1016.63 1016.76
998.05 997.24 996.25 995.65 996.09 997.01 997.84 999.04 1000.49 1001.77 1002.77 1002.65 1001.74 1001.72 1000.77 1000.56 1000.93 1001.74 1002.26 1002.46 1003.36 1004.38 1005.05 1006.03 1007.05 1008.12 1009.05 1009.88 1010.80 1011.75 1012.67 1013.45 1013.93 1014.28 1014.64 1014.82 1015.12 1015.43 1015.70 1015.85 1016.19 1016.17 1016.37 1016.50
997.49 996.84 995.62 995.28 995.17 996.20 997.48 998.36 999.30 1001.26 1002.02 1002.59 1001.30 1000.25 999.59 1000.13 1000.88 1001.44 1001.89 1002.54 1003.03 1003.67 1004.53 1005.26 1006.35 1007.23 1008.20 1009.29 1010.21 1011.12 1012.00 1012.63 1013.48 1014.05 1014.39 1014.57 1014.93 1015.29 1015.68 1015.72 1015.82 1015.98 1016.11 1016.21
996.52 996.91 995.28 994.79 994.93 995.53 996.41 997.62 999.40 1000.92 1002.58 1002.80 1001.68 1000.80 1000.38 1000.52 1000.61 1000.99 1001.70 1002.22 1002.48 1002.92 1003.78 1004.72 1005.76 1006.74 1007.61 1008.43 1009.49 1010.53 1011.33 1011.91 1012.62 1013.33 1013.87 1014.25 1014.64 1014.89 1015.14 1015.46 1015.62 1015.70 1015.81 1015.92
995.80 996.64 995.19 994.68 994.70 995.44 996.45 997.39 999.10 1000.69 1001.94 1002.63 1002.08 1001.77 1000.02 1000.12 1000.39 1000.74 1000.89 1001.08 1001.56 1002.41 1003.23 1003.99 1004.91 1005.86 1006.77 1007.77 1008.77 1009.74 1010.67 1011.40 1011.98 1012.70 1013.16 1013.81 1014.28 1014.53 1014.74 1015.04 1015.36 1015.49 1015.63 1015.71
994.63 995.44 995.64 994.76 994.16 994.72 995.77 996.90 998.57 1000.50 1001.66 1001.89 1001.68 1001.00 999.37 999.58 999.87 1000.09 1000.49 1000.97 1001.07 1001.59 1002.10 1003.16 1004.27 1005.21 1006.31 1007.26 1008.19 1008.98 1009.97 1010.74 1011.28 1011.84 1012.58 1013.46 1013.89 1014.25 1014.69 1014.83 1015.01 1015.24 1015.36 1015.41
993.77 994.94 995.61 994.93 994.60 994.34 995.26 996.42 997.48 998.69 999.99 1001.43 1001.79 1001.22 1000.01 999.61 999.87 1000.04 1000.53 1000.88 1001.03 1001.56 1002.11 1002.78 1003.85 1004.79 1005.53 1006.44 1007.51 1008.37 1009.23 1010.06 1010.68 1011.30 1012.09 1012.90 1013.48 1013.97 1014.24 1014.43 1014.60 1014.84 1014.94 1015.03
992.95 994.01 994.63 994.73 994.20 994.39 995.18 995.75 996.56 997.82 999.63 1000.37 1000.58 1000.60 1000.20 1000.28 1000.19 1000.15 1000.38 1000.79 1001.17 1001.49 1001.99 1002.19 1002.95 1004.04 1004.83 1005.69 1006.71 1007.68 1008.55 1009.26 1010.16 1010.82 1011.56 1012.32 1013.09 1013.46 1013.82 1013.89 1014.13 1014.29 1014.38 1014.53
992.53 993.95 994.17 994.09 993.97 993.98 994.43 995.00 995.81 997.01 998.02 999.41 999.50 999.88 999.77 999.70 1000.16 1000.07 999.98 1000.40 1001.03 1001.37 1001.97 1002.13 1002.63 1003.38 1004.07 1005.18 1006.25 1007.09 1007.60 1008.41 1009.29 1010.23 1010.98 1011.60 1012.27 1012.77 1013.27 1013.52 1013.53 1013.60 1013.80 1013.93
992.10 993.74 994.07 994.48 994.28 994.30 994.65 994.72 995.68 996.20 996.89 997.39 997.89 998.63 997.91 997.49 998.68 999.54 999.96 1000.37 1000.66 1001.10 1001.52 1001.90 1002.25 1002.69 1003.44 1004.30 1005.01 1005.84 1006.53 1007.38 1008.21 1009.44 1010.34 1010.97 1011.63 1012.26 1012.69 1012.89 1012.92 1013.17 1013.36 1013.46
992.49 993.85 994.86 995.50 995.14 995.10 995.23 994.65 995.11 995.70 995.58 996.05 996.97 997.39 997.24 998.39 999.24 999.73 1000.07 1000.10 1000.47 1000.89 1001.17 1001.49 1002.08 1002.50 1002.74 1003.57 1004.32 1005.21 1006.65 1007.34 1008.10 1008.75 1009.91 1010.58 1011.03 1011.61 1011.99 1012.11 1012.44 1012.80 1012.97 1012.98
993.15 994.54 995.65 996.74 996.67 996.30 995.21 994.59 995.03 996.29 996.84 996.40 996.69 997.04 997.65 998.35 999.05 999.40 999.68 1000.01 1000.20 1000.83 1000.97 1001.11 1001.54 1001.67 1002.12 1003.01 1004.19 1005.39 1006.67 1007.60 1007.75 1008.47 1009.34 1009.82 1010.39 1010.93 1011.18 1011.62 1012.01 1012.15 1012.22 1012.54
994.00 995.59 997.90 998.50 998.34 997.29 996.13 995.64 996.00 996.23 998.00 997.26 996.96 997.33 997.21 998.20 999.31 999.77 999.36 999.40 999.93 1000.15 1000.80 1000.75 1000.85 1001.39 1001.85 1002.66 1003.76 1005.28 1006.47 1006.78 1007.65 1008.66 1009.25 1009.26 1009.73 1010.08 1010.36 1010.81 1011.31 1011.66 1012.00 1012.12
995.98 996.85 998.77 1000.49 1000.66 999.48 997.66 996.85 996.56 996.89 998.41 998.07 997.79 998.84 998.84 998.99 1000.05 1000.14 999.67 999.53 999.75 1000.04 1000.22 1000.28 1000.64 1001.25 1001.71 1002.49 1003.47 1004.82 1006.11 1006.82 1007.64 1008.26 1008.16 1008.28 1008.57 1008.99 1009.56 1010.12 1010.42 1010.52 1010.92 1011.75
997.93 998.78 1000.22 1001.52 1002.08 1000.90 999.36 998.42 996.20 999.61 999.89 998.72 998.47 998.79 999.88 1000.55 1000.59 1000.11 999.66 999.65 999.53 999.67 999.83 1000.10 1000.50 1001.40 1001.81 1002.46 1003.54 1004.82 1005.83 1006.63 1006.60 1006.88 1007.17 1007.53 1007.79 1008.40 1008.82 1009.24 1009.69 1010.00 1010.62 1011.58
999.35 999.92 1000.53 1001.49 1002.16 1001.70 1000.73 999.63 999.27 1000.04 999.19 999.41 999.35 999.18 999.40 999.90 999.90 999.44 999.23 999.58 999.96 999.74 999.82 1000.01 1000.71 1001.10 1001.55 1002.29 1003.47 1004.94 1005.61 1005.66 1005.93 1006.22 1006.58 1006.94 1007.38 1007.63 1008.08 1009.12 1010.00 1010.34 1010.83 1011.79
999.55 1000.46 1001.01 1002.28 1002.51 1002.70 1002.93 1002.40 1000.67 1000.26 1000.43 1000.24 999.82 999.84 999.86 999.70 999.86 999.86 999.76 1000.11 999.96 999.93 999.84 1000.00 1000.57 1001.23 1001.99 1002.52 1003.88 1006.13 1008.31 1007.51 1006.97 1008.28 1005.70 1006.38 1006.62 1007.69 1008.33 1009.00 1009.92 1010.68 1011.52 1012.07
1000.53 1002.23 1003.02 1002.73 1003.78 1002.86 1002.62 1001.56 1001.71 1001.81 1000.97 1000.91 1001.03 1000.43 1000.21 1000.06 999.74 999.95 1000.16 1000.45 1000.33 999.95 1000.03 1000.28 1001.25 1002.35 1003.68 1004.15 1004.87 1005.91 1006.47 1008.35 1006.71 1009.23 1008.89 1007.45 1008.55 1008.98 1009.35 1010.08 1010.85 1011.26 1011.72 1012.07
1001.21 1002.03 1002.66 1003.26 1003.14 1003.49 1003.69 1002.94 1002.39 1002.18 1001.76 1001.40 1002.48 1001.08 1000.61 1000.49 1000.77 1000.85 1001.06 1001.46 1001.35 1001.08 1000.99 1001.01 1001.98 1003.11 1004.26 1004.59 1005.26 1005.42 1005.55 1006.95 1007.77 1009.21 1008.82 1009.27 1009.08 1009.16 1009.95 1010.76 1011.46 1011.28 1011.92 1012.17
1001.51 1002.23 1003.09 1004.60 1004.73 1003.79 1004.81 1003.30 1002.03 1002.00 1002.20 1002.62 1002.60 1002.07 1001.40 1001.23 1001.46 1001.30 1001.68 1001.96 1002.05 1002.21 1002.51 1002.93 1003.25 1003.52 1004.41 1004.60 1005.07 1005.57 1005.68 1006.06 1007.59 1007.97 1008.19 1008.62 1008.68 1009.05 1010.19 1011.38 1012.09 1012.04 1012.33 1012.82
Wind_Speed
8 3 7 12 12 12 10 11 9 6 10 7 8 17 18 17 14 10 8 11 13 11 16 16 12 10 10 10 8 9 8 7 6 3 3 2 3 3 4 4 6 1 2 2
6 9 13 16 17 11 10 11 13 13 13 9 10 16 17 11 12 17 13 12 14 12 18 16 14 12 12 11 8 7 8 8 6 4 3 3 3 4 3 4 2 4 4 1
11 10 19 20 17 12 12 8 15 13 13 9 10 4 2 6 10 14 17 15 11 13 16 16 15 13 12 14 12 10 8 8 7 7 3 1 1 2 1 1 4 3 3 1
11 15 21 20 18 11 7 6 6 12 20 10 11 6 5 13 12 15 18 17 14 16 15 14 12 8 12 13 11 11 10 8 7 7 4 4 3 2 2 3 3 3 2 3
14 16 18 20 16 8 8 8 6 6 4 5 11 6 13 13 12 7 13 18 17 20 20 18 17 12 12 14 12 9 10 8 7 8 8 5 3 2 2 3 3 2 4 5
12 13 15 16 12 11 6 3 5 7 1 1 7 9 5 15 18 19 15 20 18 21 22 21 18 15 15 13 12 9 9 8 8 8 7 6 5 4 3 1 2 2 2 2
13 20 16 15 8 9 5 4 2 3 2 7 8 6 11 21 19 21 20 15 14 24 23 22 22 19 19 16 15 11 12 8 9 9 8 7 7 7 5 4 2 3 1 2
9 13 19 15 10 11 8 10 7 6 4 8 10 6 5 21 22 21 18 17 13 20 22 23 22 19 21 19 17 16 14 9 9 8 8 8 7 3 3 4 4 2 2 3
10 14 13 12 6 10 11 6 10 5 5 3 5 5 7 17 15 16 21 14 12 11 19 22 21 20 20 18 18 18 15 12 10 8 7 7 6 6 5 5 4 2 3 2
14 7 14 10 10 13 12 8 2 4 2 5 5 2 5 8 9 13 12 15 14 17 16 18 20 20 17 18 16 17 16 16 12 9 8 7 7 7 7 5 5 4 3 2
19 7 15 11 9 9 2 4 4 7 6 6 3 5 5 10 10 11 11 11 14 22 16 18 20 20 19 17 17 18 16 15 13 9 9 7 7 7 7 7 5 5 3 3
22 6 11 15 8 13 9 9 10 7 4 1 7 6 9 11 9 9 9 9 7 9 20 18 18 20 19 17 17 18 16 15 13 10 9 8 7 6 6 6 6 5 4 3
15 13 10 6 8 12 15 9 9 7 5 4 4 4 2 7 7 7 9 8 8 9 9 15 18 21 20 18 16 16 15 14 13 9 10 8 8 7 7 7 6 5 5 5
13 7 10 8 10 11 11 13 8 9 6 6 7 7 5 6 5 10 9 8 9 8 9 14 17 21 20 19 18 16 15 15 13 12 11 9 9 8 7 7 7 7 7 6
14 8 7 8 7 3 9 6 8 8 9 9 8 10 11 11 8 9 9 6 5 6 8 11 12 19 19 17 16 14 16 16 16 13 13 11 9 8 8 8 8 7 7 7
7 7 5 2 2 5 6 15 15 17 13 7 8 8 13 16 10 7 8 8 5 2 6 9 9 12 19 19 19 19 17 18 16 15 13 11 12 10 9 8 8 7 7 7
10 7 5 5 1 6 7 5 5 8 15 16 13 9 7 9 9 8 7 7 4 2 2 2 8 9 15 18 19 20 12 9 14 14 11 12 12 11 11 11 8 7 8 7
6 6 5 4 3 6 7 8 5 16 13 16 9 13 14 11 10 8 8 8 8 5 6 3 4 7 14 14 13 11 15 12 11 10 9 10 10 11 11 9 8 8 6 7
6 6 7 5 6 4 5 8 3 4 3 9 17 12 19 14 11 6 2 8 8 8 4 2 2 7 14 16 16 13 13 12 9 9 12 10 10 10 9 8 8 6 5 5
13 10 8 4 6 0 8 6 6 6 4 5 14 11 6 6 7 4 7 7 7 7 5 2 3 8 14 15 17 15 13 11 13 12 12 11 11 10 8 8 9 7 5 5
3 5 6 6 3 9 9 14 12 6 9 8 6 13 9 5 6 2 6 1 8 7 9 6 4 10 13 15 16 16 14 11 11 11 9 11 10 10 9 8 5 6 5 1
8 3 1 4 5 5 15 8 6 3 5 9 8 7 8 5 6 8 6 6 5 7 7 9 6 9 9 15 14 13 13 16 13 11 11 9 8 8 6 7 4 5 6 4
6 2 4 2 5 4 4 6 12 8 6 7 8 7 7 7 6 6 6 5 7 9 8 7 10 8 6 8 7 12 17 16 21 18 7 6 8 6 6 7 6 3 5 2
6 1 3 1 4 3 8 11 15 15 11 6 7 5 7 6 8 8 7 8 7 5 7 6 14 15 10 13 17 16 15 13 17 14 14 16 7 3 6 7 5 5 1 2
2 3 2 4 10 4 4 3 7 9 11 20 13 8 8 9 8 4 2 6 6 7 9 13 14 13 12 13 14 13 14 10 5 11 5 10 8 5 7 6 2 4 3 2
4 7 5 3 1 7 9 9 6 10 8 7 8 9 9 7 4 9 8 5 5 7 8 10 9 13 9 10 9 7 7 9 7 9 7 1 2 4 6 6 6 14 9 3
Wind_Direction
237 215 238 242 247 252 201 182 126 220 210 136 151 151 170 177 170 173 172 158 160 165 155 151 158 164 156 155 171 163 154 143 128 130 147 181 213 231 243 237 245 194 92 64
228 216 241 245 251 227 240 155 181 224 182 123 168 162 175 150 178 175 176 178 174 172 154 160 165 178 175 169 156 148 148 156 153 156 180 169 179 222 213 216 186 117 70 152
214 214 236 244 256 240 246 176 208 166 178 153 123 160 121 235 168 203 175 178 185 166 155 165 173 182 162 161 159 163 167 162 164 179 167 210 316 311 87 18 101 97 94 69
218 235 228 240 251 227 245 270 283 160 148 176 178 195 206 207 239 201 177 180 181 161 159 152 165 168 152 166 165 161 162 167 178 174 165 161 173 185 233 134 141 166 178 180
218 224 229 237 246 239 215 260 243 264 193 164 187 108 222 178 243 193 184 182 182 167 166 166 168 179 162 158 166 166 161 170 149 132 130 128 110 97 64 103 138 56 343 254
233 221 230 229 241 255 234 211 288 252 153 50 215 150 183 179 196 205 174 184 182 170 171 172 174 172 166 166 161 161 144 148 148 133 144 130 136 134 104 82 41 7 314 18
222 238 247 233 203 235 186 144 285 352 1 223 253 259 196 195 187 193 207 184 190 174 174 176 178 174 169 172 164 154 148 160 159 158 166 172 161 152 175 193 159 149 61 96
218 242 235 236 198 193 201 164 156 193 197 242 246 233 239 184 191 190 204 201 177 179 176 178 179 175 173 172 163 160 158 160 168 175 165 144 148 161 195 146 154 142 163 170
206 241 253 220 166 167 227 182 191 183 237 324 233 174 21 166 197 195 206 204 193 192 181 179 177 176 174 172 165 164 165 161 169 185 163 156 167 171 158 149 143 163 122 182
250 216 235 214 169 238 156 154 213 345 213 286 280 245 196 148 155 165 187 203 204 199 182 172 174 178 174 171 164 164 168 170 174 171 169 175 182 182 172 160 177 200 227 220
234 210 258 176 191 190 124 163 165 166 152 187 267 260 217 149 155 164 175 167 187 202 181 174 174 176 173 167 164 167 169 170 171 169 168 180 181 181 172 168 195 209 209 219
224 196 237 210 183 173 194 177 163 125 272 223 150 262 156 151 159 134 143 140 142 146 182 177 169 170 173 170 166 171 170 173 176 160 162 165 165 169 177 180 192 200 194 230
215 231 243 292 201 185 197 214 172 150 121 236 124 252 202 144 149 138 129 152 157 160 174 178 163 175 177 176 169 167 170 165 169 156 152 160 167 177 179 179 184 194 201 215
193 220 170 201 204 169 198 208 176 160 144 222 204 165 196 60 123 125 129 140 169 180 179 177 162 176 180 178 172 166 166 164 168 164 162 162 175 181 189 189 199 206 208 217
199 198 194 213 245 268 207 195 209 206 208 160 224 154 181 154 167 149 131 121 154 191 197 188 174 179 179 176 169 168 170 166 169 165 167 176 176 178 185 194 205 206 210 219
187 190 125 111 359 241 249 197 211 235 215 244 237 220 194 187 137 150 155 177 172 215 225 196 209 170 180 175 170 174 170 167 164 169 176 172 177 180 188 202 211 208 220 226
136 128 101 161 4 339 329 272 228 246 212 205 224 220 131 116 119 135 131 112 109 237 261 294 199 199 177 173 168 181 152 158 164 157 170 177 174 182 196 206 202 205 214 206
103 94 108 148 120 249 246 301 334 78 41 41 38 139 124 133 149 148 159 168 180 202 212 239 308 178 168 164 155 139 145 175 159 151 174 173 171 185 201 201 200 210 200 211
68 89 64 124 184 219 276 264 140 161 60 33 44 118 138 145 91 55 70 171 165 138 145 185 249 166 152 154 158 130 154 173 153 177 199 177 178 196 197 199 199 207 197 213
66 78 99 80 94 92 237 145 112 38 59 0 84 47 29 81 92 200 88 98 96 126 138 92 325 150 155 158 151 146 167 170 179 195 191 183 188 191 192 192 197 192 171 211
11 65 115 117 115 285 355 287 76 105 231 9 98 116 103 95 172 181 63 68 161 166 157 140 128 153 173 156 150 161 172 184 196 191 177 185 187 190 197 198 182 157 151 98
186 163 109 124 93 286 348 321 109 186 54 107 71 45 87 91 13 22 40 18 347 208 172 164 161 159 154 152 148 166 182 190 199 183 179 178 181 198 191 132 147 136 147 154
30 1 123 209 141 173 180 355 1 45 65 30 55 46 44 46 45 8 353 306 311 239 184 161 152 148 69 75 68 56 19 44 50 340 178 159 165 146 128 133 163 108 25 42
98 356 147 186 20 349 334 49 39 6 13 14 338 25 51 32 20 1 340 297 283 236 169 121 94 99 94 84 87 84 70 37 51 341 357 345 46 44 62 59 66 87 113 234
166 53 4 93 54 76 351 2 126 95 53 12 329 4 21 40 4 334 298 83 62 65 82 109 110 104 102 98 94 92 102 122 169 193 209 230 214 169 101 69 333 148 53 82
177 169 117 152 232 88 277 292 80 60 39 51 343 339 349 17 42 92 72 69 77 87 88 81 86 106 116 113 114 140 152 153 192 194 207 220 145 93 123 136 82 41 82 35